COSMOS 1275 DEB, 14740

Orbit data source: Space-Track

COSMOS 1275 DEB, 14740 is space debris in LEO originally from a launch on Thu, 04 Jun 1981 UTC launched from the Plesetsk Missile And Space Complex (PKMTR). Debris objects in space refer to the collection of defunct objects orbiting the Earth. Examples of debris include non-operational satellites, rocket bodies, and fragments generated from explosions, collisions, or faulty payload assembly.

Loading next visibility...
Identifier
14740, 1981-053JV
Orbit
LEO
Country
Flag of CISCIS
Related business
Manufacturer
Unknown
Mission
Spacecraft
Bus & Motor
Unknown
Mass
Unknown
Launch date (UTC)
1981-06-04 (45 years ago)
Launch vehicle
Unknown
Launch site
Plesetsk Missile And Space Complex (PKMTR)
Object type
Payload
Rocket body
Debris
Shape & HBR
Unknown shape, 0.1 m
Radar Cross Section
Medium (>0.1 m² and <1 m²)

Expand to show TLE details & history
Last TLE update: 12 hours ago

TLE from 12 hours ago
0 COSMOS 1275 DEB
1 14740U 81053JV  26150.04484397  .00001828  00000-0  14769-2 0  9994
2 14740  83.1347 353.8088 0100214  90.5844  61.9802 13.87444788115396
Epoch: 2026-05-30T01:04Z
TLE epoch observation values (Epoch: 2026-05-30T01:04:34.519Z)
Latitude
26.24596°
Longitude
-93.28695°
Altitude
906.932 km
Speed
7.418 km/s
True Right ascension
11h 21m 41s
True Declination
26° 06' 45"
Sunlit
Object was in daylight at epoch
Visualization orbit readout
Latitude
Unknown
Longitude
Unknown
Altitude
Unknown
Speed
Unknown
Apparent Right ascension
Unknown
Apparent Declination
Unknown
Sunlit
N/A
Visualization observer readout
Local Sidereal Time
22:09:11
Azimuth
Unknown
Elevation
Unknown
Doppler factor
Unknown
Orbital elements
Apogee altitude
1,008.008 km
Perigee altitude
861.438 km
Semi-major axis
7,312.86 km
Eccentricity
0.01002
Inclination
83.1347°
RAAN
353.8088°
Arg. of periapsis
90.5844°
True anomaly
62.99991°
Mean anomaly
61.9802°
Eccentric anomaly
62.48946°
Mean motion
3.47066 °/min
Orbital period
103.73 mins
BSTAR
0.0014769
Loading maneuver chart data...
Computing Atmospheric mass density...
Loading historical data...
Loading historical data...
Loading historical data...
Loading historical data...
Loading historical data...
Loading historical data...
Loading historical data...

Documentation

Showing up to 5 results
|